Regional Weather Roundup
Issued by NWS Sioux Falls, SD

Home | Current Version | Previous Version | Text Only | Print | Product List | Glossary On
Versions: 1 2 3 4 5 6 7 8 9 10 11 12 13 14 15 16 17 18 19 20 21 22 23 24 25 26 27 28 29 30 31 32 33 34 35 36 37 38 39 40 41 42 43 44 45 46 47 48 49 50
000
ASUS43 KFSD 050702
RWRFSD

WEATHER ROUNDUP FOR SE SOUTH DAKOTA/SW MINNESOTA/NW IOWA
NATIONAL WEATHER SERVICE SIOUX FALLS SD
200 AM CDT THU MAY 05 2016

NOTE: "FAIR" INDICATES FEW OR NO CLOUDS BELOW 12,000 FEET WITH NO
SIGNIFICANT WEATHER AND OR OBSTRUCTIONS TO VISIBILITY.


SDZ038>040-050-052>070-050800-
SOUTHEAST SOUTH DAKOTA

CITY           SKY/WX    TMP DP  RH WIND       PRES   REMARKS
BROOKINGS      CLEAR     45  34  65 SE3       30.02S
CHAMBERLAIN    NOT AVBL
HURON          CLEAR     49  41  74 SE3       30.01F
MADISON        FAIR      46  36  66 W3        30.03S
MITCHELL       CLEAR     47  42  83 E3        30.03S
SIOUX FALLS    CLEAR     44  36  73 CALM      30.02F
WINNER         FAIR      52  38  58 S8        30.04S
YANKTON        CLEAR     48  37  66 NW5       30.03F
$$

MNZ071-072-080-081-089-090-097-098-050800-
SOUTHWEST MINNESOTA

CITY           SKY/WX    TMP DP  RH WIND       PRES   REMARKS
FAIRMONT       CLEAR     48  30  49 W3        30.00S
JACKSON        CLEAR     46  32  57 CALM      30.02S
LUVERNE        CLEAR     45  32  61 CALM      30.03S
MARSHALL       CLEAR     46  32  58 SW5       30.02S
MONTEVIDEO     CLEAR     48  28  46 W5        30.01F
PIPESTONE      CLEAR     45  36  70 CALM      30.02S
REDWOOD FALLS  CLEAR     48  31  51 CALM      30.00S
TRACY          CLEAR     49  34  56 W6        30.02S
WINDOM         CLEAR     43  34  70 CALM      30.02S
WORTHINGTON    CLEAR     46  35  65 NW5       30.03S
$$

IAZ001>003-012>014-020>022-031-032-NEZ013-014-SDZ071-050800-
NORTHWEST IOWA

CITY           SKY/WX    TMP DP  RH WIND       PRES   REMARKS
DENISON        CLEAR     43  39  87 CALM      30.00S
ESTHERVILLE    CLEAR     43  36  76 NW5       30.01S
SIOUX CITY     CLEAR     44  38  79 W7        30.03S
SPENCER        CLEAR     43  37  79 CALM      30.02R
STORM LAKE     CLEAR     50  36  57 N7        30.03R
$$

ABBREVIATIONS USED IN REMARKS
   TC - TEMPERATURE IN CELSIUS
  WCI - WIND CHILL INDEX
   HX - HEAT INDEX
  VSB - VISIBILITY





USA.gov is the U.S. government's official web portal to all federal, state and local government web resources and services.